| time (UTC) | temp F | wind direction | speed MPH | gust MPH | rain 1hr in | rain 24hr in | rain mn in | humidity % | barometer mb |
| 20260905064316 | 72 | 314 | 0.0 | 0.0 | 0.00 | 0.00 | 0.00 | 90 | 1010.8 |
| 20260905063332 | 72 | 314 | 0.0 | 0.0 | 0.00 | 0.00 | 0.00 | 90 | 1010.8 |
| 20260905062325 | 72 | 314 | 0.0 | 0.0 | 0.00 | 0.00 | 0.00 | 89 | 1010.9 |
| 20260905061318 | 72 | 314 | 0.0 | 0.0 | 0.00 | 0.00 | 0.00 | 88 | 1011.0 |
| 20260905060314 | 72 | 314 | 0.0 | 0.0 | 0.00 | 0.00 | 0.00 | 88 | 1011.1 |
| 20260905055311 | 72 | 313 | 0.0 | 0.0 | 0.00 | 0.00 | 0.00 | 88 | 1011.0 |
| 20260905054327 | 73 | 314 | 0.0 | 0.0 | 0.00 | 0.00 | 0.00 | 87 | 1011.1 |
| 20260905053315 | 73 | 314 | 0.0 | 0.0 | 0.00 | 0.00 | 0.00 | 86 | 1011.0 |
| 20260905052312 | 74 | 314 | 0.0 | 0.0 | 0.00 | 0.00 | 0.00 | 84 | 1011.1 |
| 20260905051328 | 75 | 314 | 0.0 | 0.0 | 0.00 | 0.00 | 0.00 | 83 | 1011.2 |
| 20260905050319 | 75 | 314 | 0.0 | 0.0 | 0.00 | 0.00 | 0.00 | 83 | 1011.2 |
| 20260905045316 | 76 | 309 | 0.0 | 0.0 | 0.00 | 0.00 | 0.00 | 82 | 1011.2 |
| 20260905044314 | 76 | 309 | 0.0 | 1.0 | 0.00 | 0.00 | 0.00 | 81 | 1011.4 |
| 20260905043355 | 76 | 147 | 0.0 | 1.0 | 0.00 | 0.00 | 0.00 | 80 | 1011.8 |
| 20260905042330 | 76 | 256 | 0.0 | 1.0 | 0.00 | 0.00 | 0.00 | 80 | 1011.7 |
| 20260905041320 | 76 | 33 | 0.0 | 0.0 | 0.00 | 0.00 | 0.00 | 79 | 1011.5 |
| 20260905040316 | 76 | 34 | 0.0 | 0.0 | 0.00 | 0.00 | 0.00 | 78 | 1011.4 |
| 20260905035311 | 77 | 34 | 0.0 | 0.0 | 0.00 | 0.00 | 0.00 | 78 | 1011.4 |
| 20260905034346 | 77 | 34 | 0.0 | 0.0 | 0.00 | 0.00 | 0.00 | 79 | 1011.4 |
| 20260905033315 | 77 | 34 | 0.0 | 0.0 | 0.00 | 0.00 | 0.00 | 80 | 1011.4 |
| 20260905032339 | 77 | 34 | 0.0 | 0.0 | 0.00 | 0.00 | 0.00 | 81 | 1011.3 |
| 20260905031335 | 77 | 34 | 0.0 | 0.0 | 0.00 | 0.00 | 0.00 | 81 | 1011.3 |
| 20260905030326 | 77 | 34 | 0.0 | 0.0 | 0.00 | 0.00 | 0.00 | 81 | 1011.3 |
| 20260905025322 | 77 | 34 | 0.0 | 0.0 | 0.00 | 0.00 | 0.00 | 81 | 1011.4 |
| 20260905024325 | 77 | 34 | 0.0 | 0.0 | 0.00 | 0.00 | 0.00 | 82 | 1011.3 |
| 20260905023317 | 77 | 35 | 0.0 | 0.0 | 0.00 | 0.00 | 0.00 | 82 | 1011.3 |
| 20260905022314 | 77 | 34 | 0.0 | 0.0 | 0.00 | 0.00 | 0.00 | 82 | 1011.3 |
| 20260905021311 | 77 | 34 | 0.0 | 0.0 | 0.00 | 0.00 | 0.00 | 82 | 1011.3 |
| 20260905020322 | 77 | 36 | 0.0 | 0.0 | 0.00 | 0.00 | 0.00 | 83 | 1011.3 |
| 20260905015319 | 77 | 35 | 0.0 | 0.0 | 0.00 | 0.00 | 0.00 | 84 | 1011.3 |
| 20260905014316 | 77 | 36 | 0.0 | 0.0 | 0.00 | 0.00 | 0.00 | 83 | 1011.3 |
| 20260905013317 | 77 | 36 | 0.0 | 0.0 | 0.00 | 0.00 | 0.00 | 82 | 1011.2 |
| 20260905012330 | 77 | 36 | 0.0 | 0.0 | 0.00 | 0.00 | 0.00 | 82 | 1011.4 |
| 20260905011320 | 77 | 36 | 0.0 | 0.0 | 0.00 | 0.00 | 0.00 | 82 | 1011.4 |
| 20260905010337 | 77 | 36 | 0.0 | 0.0 | 0.00 | 0.00 | 0.00 | 82 | 1011.4 |
| 20260905005312 | 77 | 36 | 0.0 | 0.0 | 0.00 | 0.00 | 0.00 | 82 | 1011.4 |
| 20260905004326 | 78 | 36 | 0.0 | 0.0 | 0.00 | 0.00 | 0.00 | 82 | 1011.4 |
| 20260905003324 | 78 | 36 | 0.0 | 0.0 | 0.00 | 0.00 | 0.00 | 82 | 1011.3 |
| 20260905002319 | 78 | 35 | 0.0 | 0.0 | 0.00 | 0.00 | 0.00 | 81 | 1011.1 |
| 20260905001340 | 78 | 36 | 0.0 | 0.0 | 0.00 | 0.00 | 0.00 | 80 | 1011.1 |
| 20260905000310 | 79 | 36 | 0.0 | 0.0 | 0.00 | 0.00 | 0.00 | 79 | 1011.1 |
| 20260904235327 | 79 | 36 | 0.0 | 0.0 | 0.00 | 0.00 | 0.00 | 78 | 1010.9 |
| 20260904234352 | 79 | 35 | 0.0 | 0.0 | 0.00 | 0.00 | 0.00 | 77 | 1010.8 |
| 20260904233320 | 80 | 36 | 0.0 | 0.0 | 0.00 | 0.00 | 0.00 | 75 | 1010.9 |
| 20260904232320 | 80 | 36 | 0.0 | 0.0 | 0.00 | 0.00 | 0.00 | 74 | 1010.9 |
| 20260904231317 | 81 | 36 | 0.0 | 0.0 | 0.00 | 0.00 | 0.00 | 73 | 1011.0 |
| 20260904230309 | 82 | 36 | 0.0 | 0.0 | 0.00 | 0.00 | 0.00 | 72 | 1010.9 |
| 20260904225324 | 82 | 36 | 0.0 | 0.0 | 0.00 | 0.00 | 0.00 | 70 | 1011.1 |
| 20260904224317 | 83 | 33 | 0.0 | 1.0 | 0.00 | 0.00 | 0.00 | 68 | 1011.0 |
| 20260904223335 | 83 | 20 | 0.0 | 1.0 | 0.00 | 0.00 | 0.00 | 67 | 1011.1 |
| 20260904222332 | 84 | 6 | 0.0 | 1.0 | 0.00 | 0.00 | 0.00 | 67 | 1011.3 |
| 20260904221326 | 84 | 150 | 0.0 | 0.0 | 0.00 | 0.00 | 0.00 | 67 | 1011.2 |
| 20260904220319 | 85 | 219 | 0.0 | 1.0 | 0.00 | 0.00 | 0.00 | 66 | 1011.2 |
| 20260904215338 | 85 | 147 | 0.0 | 2.0 | 0.00 | 0.00 | 0.00 | 65 | 1011.2 |
| 20260904214312 | 85 | 238 | 0.0 | 1.0 | 0.00 | 0.00 | 0.00 | 63 | 1011.3 |
| 20260904213310 | 85 | 338 | 0.0 | 4.0 | 0.00 | 0.00 | 0.00 | 63 | 1011.4 |
| 20260904212330 | 86 | 21 | 0.0 | 6.0 | 0.00 | 0.00 | 0.00 | 62 | 1011.5 |
| 20260904211322 | 87 | 18 | 1.0 | 7.0 | 0.00 | 0.00 | 0.00 | 58 | 1011.3 |
| 20260904210341 | 88 | 158 | 0.0 | 4.0 | 0.00 | 0.00 | 0.00 | 57 | 1011.1 |
| 20260904205335 | 89 | 4 | 0.0 | 7.0 | 0.00 | 0.00 | 0.00 | 55 | 1011.0 |
| 20260904204329 | 90 | 233 | 2.0 | 5.0 | 0.00 | 0.00 | 0.00 | 53 | 1011.0 |
| 20260904202331 | 90 | 360 | 0.0 | 4.0 | 0.00 | 0.00 | 0.00 | 57 | 1011.1 |
| 20260904201319 | 90 | 21 | 1.0 | 2.0 | 0.00 | 0.00 | 0.00 | 56 | 1011.2 |
| 20260904200337 | 89 | 342 | 0.0 | 8.0 | 0.00 | 0.00 | 0.00 | 60 | 1011.5 |
| 20260904195331 | 89 | 37 | 1.0 | 6.0 | 0.00 | 0.00 | 0.00 | 56 | 1011.6 |
| 20260904194330 | 88 | 125 | 1.0 | 5.0 | 0.00 | 0.00 | 0.00 | 59 | 1011.6 |
| 20260904193323 | 88 | 360 | 1.0 | 4.0 | 0.00 | 0.00 | 0.00 | 58 | 1011.9 |
| 20260904191312 | 89 | 7 | 0.0 | 5.0 | 0.00 | 0.00 | 0.00 | 58 | 1012.1 |
| 20260904190319 | 89 | 123 | 2.0 | 5.0 | 0.00 | 0.00 | 0.00 | 55 | 1012.2 |
| 20260904185322 | 88 | 336 | 1.0 | 7.0 | 0.00 | 0.00 | 0.00 | 58 | 1012.4 |
| 20260904184324 | 88 | 326 | 2.0 | 5.0 | 0.00 | 0.00 | 0.00 | 58 | 1012.4 |
| 20260904183322 | 88 | 125 | 2.0 | 5.0 | 0.00 | 0.00 | 0.00 | 59 | 1012.6 |
| 20260904182323 | 87 | 45 | 2.0 | 7.0 | 0.00 | 0.00 | 0.00 | 60 | 1012.6 |
| 20260904181327 | 87 | 352 | 0.0 | 3.0 | 0.00 | 0.00 | 0.00 | 62 | 1012.7 |
| 20260904180324 | 88 | 139 | 0.0 | 5.0 | 0.00 | 0.00 | 0.00 | 58 | 1012.7 |
| 20260904175327 | 89 | 220 | 0.0 | 4.0 | 0.00 | 0.00 | 0.00 | 59 | 1012.5 |
| 20260904174325 | 88 | 317 | 0.0 | 3.0 | 0.00 | 0.00 | 0.00 | 61 | 1012.6 |
| 20260904173320 | 87 | 252 | 1.0 | 5.0 | 0.00 | 0.00 | 0.00 | 62 | 1012.7 |
| 20260904172320 | 87 | 139 | 0.0 | 2.0 | 0.00 | 0.00 | 0.00 | 60 | 1012.8 |
| 20260904171320 | 88 | 297 | 0.0 | 5.0 | 0.00 | 0.00 | 0.00 | 61 | 1012.8 |
| 20260904170317 | 88 | 8 | 0.0 | 3.0 | 0.00 | 0.00 | 0.00 | 61 | 1012.8 |
| 20260904165317 | 87 | 245 | 0.0 | 2.0 | 0.00 | 0.00 | 0.00 | 61 | 1012.7 |
| 20260904164346 | 86 | 75 | 0.0 | 6.0 | 0.00 | 0.00 | 0.00 | 62 | 1012.8 |
| 20260904163317 | 86 | 203 | 1.0 | 3.0 | 0.00 | 0.00 | 0.00 | 61 | 1012.9 |
| 20260904162318 | 87 | 11 | 3.0 | 6.0 | 0.00 | 0.00 | 0.00 | 59 | 1013.0 |
| 20260904161341 | 87 | 72 | 1.0 | 6.0 | 0.00 | 0.00 | 0.00 | 60 | 1012.9 |
| 20260904160316 | 87 | 86 | 2.0 | 5.0 | 0.00 | 0.00 | 0.00 | 59 | 1013.0 |
| 20260904155317 | 88 | 11 | 0.0 | 6.0 | 0.00 | 0.00 | 0.00 | 58 | 1013.0 |
| 20260904154317 | 87 | 19 | 2.0 | 6.0 | 0.00 | 0.00 | 0.00 | 62 | 1012.9 |
| 20260904153326 | 85 | 8 | 0.0 | 5.0 | 0.00 | 0.00 | 0.00 | 65 | 1012.9 |
| 20260904152326 | 85 | 56 | 2.0 | 9.0 | 0.00 | 0.00 | 0.00 | 67 | 1013.1 |
| 20260904151325 | 85 | 59 | 0.0 | 4.0 | 0.00 | 0.00 | 0.00 | 68 | 1013.0 |
| 20260904150317 | 84 | 35 | 0.0 | 5.0 | 0.00 | 0.00 | 0.00 | 70 | 1013.1 |
| 20260904145338 | 84 | 259 | 1.0 | 6.0 | 0.00 | 0.00 | 0.00 | 69 | 1013.1 |
| 20260904144317 | 83 | 83 | 1.0 | 6.0 | 0.00 | 0.00 | 0.00 | 70 | 1013.0 |
| 20260904143316 | 83 | 21 | 1.0 | 6.0 | 0.00 | 0.00 | 0.00 | 71 | 1012.9 |
| 20260904142333 | 82 | 46 | 1.0 | 7.0 | 0.00 | 0.00 | 0.00 | 72 | 1012.8 |
| 20260904141334 | 82 | 1 | 2.0 | 8.0 | 0.00 | 0.00 | 0.00 | 72 | 1012.8 |
| 20260904140328 | 82 | 1 | 1.0 | 5.0 | 0.00 | 0.00 | 0.00 | 74 | 1012.7 |
| 20260904135347 | 81 | 321 | 3.0 | 9.0 | 0.00 | 0.00 | 0.00 | 74 | 1012.7 |
| 20260904134325 | 81 | 1 | 1.0 | 6.0 | 0.00 | 0.00 | 0.00 | 76 | 1012.6 |
| 20260904133316 | 80 | 304 | 0.0 | 9.0 | 0.00 | 0.00 | 0.00 | 78 | 1012.8 |
| 20260904132318 | 79 | 288 | 1.0 | 6.0 | 0.00 | 0.00 | 0.00 | 78 | 1012.8 |
| 20260904131318 | 79 | 298 | 2.0 | 7.0 | 0.00 | 0.00 | 0.00 | 79 | 1012.9 |
| 20260904130313 | 79 | 344 | 1.0 | 4.0 | 0.00 | 0.00 | 0.00 | 79 | 1013.0 |
| 20260904125317 | 78 | 41 | 1.0 | 5.0 | 0.00 | 0.01 | 0.00 | 81 | 1012.9 |
| 20260904124316 | 78 | 264 | 0.0 | 2.0 | 0.00 | 0.01 | 0.00 | 82 | 1013.1 |
| 20260904123309 | 77 | 19 | 2.0 | 6.0 | 0.00 | 0.01 | 0.00 | 82 | 1013.1 |
| 20260904122309 | 77 | 340 | 1.0 | 6.0 | 0.00 | 0.01 | 0.00 | 83 | 1013.0 |
| 20260904121326 | 76 | 290 | 1.0 | 5.0 | 0.00 | 0.01 | 0.00 | 84 | 1013.0 |
| 20260904120322 | 76 | 135 | 1.0 | 5.0 | 0.00 | 0.01 | 0.00 | 85 | 1012.9 |
| 20260904115321 | 75 | 359 | 2.0 | 4.0 | 0.00 | 0.01 | 0.00 | 86 | 1012.8 |
| 20260904114322 | 74 | 4 | 2.0 | 7.0 | 0.00 | 0.01 | 0.00 | 88 | 1012.7 |
| 20260904113317 | 73 | 23 | 0.0 | 3.0 | 0.00 | 0.01 | 0.00 | 88 | 1012.7 |
| 20260904112346 | 73 | 23 | 0.0 | 3.0 | 0.00 | 0.01 | 0.00 | 88 | 1012.6 |
| 20260904111316 | 73 | 17 | 0.0 | 4.0 | 0.00 | 0.01 | 0.00 | 89 | 1012.3 |
| 20260904110318 | 73 | 99 | 0.0 | 1.0 | 0.00 | 0.01 | 0.00 | 89 | 1012.2 |
| 20260904105313 | 73 | 4 | 0.0 | 5.0 | 0.00 | 0.01 | 0.00 | 88 | 1012.1 |
| 20260904104312 | 73 | 322 | 0.0 | 3.0 | 0.00 | 0.01 | 0.00 | 88 | 1012.1 |
| 20260904103315 | 73 | 58 | 0.0 | 3.0 | 0.00 | 0.01 | 0.00 | 89 | 1011.8 |
| 20260904102336 | 73 | 1 | 0.0 | 2.0 | 0.00 | 0.01 | 0.00 | 89 | 1011.8 |
| 20260904101319 | 73 | 128 | 0.0 | 1.0 | 0.00 | 0.01 | 0.00 | 89 | 1011.8 |
| 20260904100311 | 73 | 16 | 0.0 | 1.0 | 0.00 | 0.01 | 0.00 | 88 | 1012.1 |
| 20260904095309 | 74 | 346 | 0.0 | 0.0 | 0.00 | 0.10 | 0.00 | 87 | 1011.9 |
| 20260904094310 | 74 | 345 | 0.0 | 4.0 | 0.00 | 0.10 | 0.00 | 86 | 1011.9 |
| 20260904093324 | 75 | 133 | 0.0 | 2.0 | 0.00 | 0.10 | 0.00 | 86 | 1011.9 |
| 20260904092344 | 75 | 353 | 0.0 | 3.0 | 0.00 | 0.10 | 0.00 | 86 | 1012.0 |
| 20260904091325 | 75 | 293 | 0.0 | 2.0 | 0.00 | 0.10 | 0.00 | 86 | 1012.0 |
| 20260904090349 | 75 | 67 | 0.0 | 3.0 | 0.00 | 0.10 | 0.00 | 86 | 1012.2 |
| 20260904085325 | 76 | 218 | 0.0 | 2.0 | 0.00 | 0.60 | 0.00 | 87 | 1012.1 |
| 20260904084320 | 76 | 118 | 1.0 | 3.0 | 0.00 | 0.60 | 0.00 | 87 | 1012.1 |
| 20260904083322 | 76 | 249 | 0.0 | 3.0 | 0.00 | 0.60 | 0.00 | 87 | 1011.9 |
| 20260904082343 | 76 | 239 | 0.0 | 3.0 | 0.00 | 0.60 | 0.00 | 87 | 1011.9 |
| 20260904081322 | 76 | 140 | 0.0 | 3.0 | 0.00 | 0.60 | 0.00 | 88 | 1012.0 |
| 20260904080319 | 76 | 134 | 0.0 | 3.0 | 0.00 | 0.60 | 0.00 | 88 | 1012.1 |
| 20260904075320 | 76 | 111 | 0.0 | 1.0 | 0.00 | 0.74 | 0.00 | 89 | 1012.2 |
| 20260904074322 | 76 | 235 | 0.0 | 1.0 | 0.00 | 0.74 | 0.00 | 89 | 1012.3 |
| 20260904073318 | 76 | 293 | 0.0 | 0.0 | 0.00 | 0.74 | 0.00 | 89 | 1012.1 |
| 20260904072341 | 76 | 296 | 0.0 | 2.0 | 0.00 | 0.74 | 0.00 | 89 | 1012.0 |
| 20260904071326 | 76 | 172 | 0.0 | 0.0 | 0.00 | 0.74 | 0.00 | 89 | 1011.7 |
| 20260904070329 | 76 | 260 | 0.0 | 0.0 | 0.00 | 0.74 | 0.00 | 89 | 1011.6 |
| 20260904065323 | 75 | 260 | 0.0 | 2.0 | 0.00 | 0.91 | 0.00 | 89 | 1011.3 |